User: anonymous   Login
Location: Newark
(44.3248°N, 23.7839°E)
Time: 21:31:07
(UTC+00:00)
Language:

FO-29 - Orbit

View from above orbital plane
View from above orbital plane
View from above satellite
View from above satellite

Ground track
Ground track

The orbit data is extracted from the following two-line orbital elements,

1 24278U 96046B   24115.43940451  .00000088  00000-0  12816-3 0  9998
2 24278  98.5772  57.1441 0349587 327.6379  30.3739 13.53184049367412
Epoch (UTC): 24 April 2024 10:32:44
Eccentricity: 0.0349587
inclination: 98.5772°
perigee height: 800 km
apogee height: 1320 km
right ascension of ascending node: 57.1441°
argument of perigee: 327.6379°
revolutions per day: 13.53184049
mean anomaly at epoch: 30.3739°
orbit number at epoch: 36741

The dashed part of the orbit path shows where the satellite is in the earth's shadow,  

DLR